Location: Anjeux
(47.8815°N, 6.2076°E)
Time: 22:09:53
(UTC+00:00)

First-Move - Visible Passes

Search period start: 05 December 2021 00:00
Search period end: 15 December 2021 00:00
Orbit: 575 x 664 km, 97.6° (Epoch: 05 December)

Date Brightness Start Highest point End Pass type
(mag) Time Alt. Az. Time Alt. Az. Time Alt. Az.
05 Dec ? 04:05:24 10° NNE 04:06:16 16° NNE 04:06:16 16° NNE visible
05 Dec ? 05:42:49 10° NNW 05:43:25 12° NNW 05:43:25 12° NNW visible
05 Dec ? 16:42:53 10° WSW 16:44:12 11° W 16:45:33 10° WNW visible
06 Dec ? 04:22:39 10° N 04:23:32 16° N 04:23:32 16° N visible
07 Dec ? 04:40:00 10° N 04:40:49 15° N 04:40:49 15° N visible
08 Dec ? 04:57:25 10° N 04:58:05 14° N 04:58:05 14° N visible
09 Dec ? 05:14:56 10° N 05:15:22 12° NNW 05:15:22 12° NNW visible
09 Dec ? 16:13:26 10° SW 16:16:43 21° W 16:20:04 10° NW visible
10 Dec ? 05:32:37 10° NNW 05:32:39 10° NNW 05:32:39 10° NNW visible
10 Dec ? 16:31:47 10° WSW 16:34:10 14° W 16:36:35 10° NW visible
11 Dec ? 04:12:45 10° NNE 04:12:48 10° NNE 04:12:48 10° NNE visible
12 Dec ? 04:30:02 10° N 04:30:06 10° N 04:30:06 10° N visible
